This demonstration page uses our WeatherBlox Daily Observations layout. Learn more.

41.55636, -103.73856

Hourly Observations for April 13, 2019

Temp ( °F °C ) Dew Point ( °F °C ) Humidity (%) Winds ( mph kmh ) Pressure ( in mb ) Visibility ( mi km ) Precip ( " mm )
12:58 am 00:58 Mostly Cloudy 31 -0.8 19 -7.3 62 62 Calm 30.08 1019 10 16.0934 0 0
1:58 am 01:58 Clear 29 -1.5 19 -7.5 64 64 Calm 30.1 1019 10 16.0934 0 0
2:58 am 02:58 Clear 27 -2.6 19 -7.1 72 72 Calm 30.14 1021 10 16.0934 0 0
3:58 am 03:58 Clear 28 -2.3 19 -7.2 69 69 Calm 30.14 1021 10 16.0934 0 0
4:58 am 04:58 Clear 25 -4 17 -8.2 73 73 NE 3 6 30.15 1021 10 16.0934 0 0
5:58 am 05:58 Clear 23 -5 17 -8.5 77 77 ESE 3 6 30.15 1021 10 16.0934 0 0
6:58 am 06:58 Clear 22 -5.8 16 -9.1 78 78 Calm 30.15 1021 10 16.0934 0 0
7:58 am 07:58 Mostly Cloudy 21 -6.2 16 -8.7 83 83 SSW 5 7 30.16 1021 10 16.0934 0 0
8:58 am 08:58 Cloudy 24 -4.7 18 -7.7 80 80 Calm 30.14 1021 10 16.0934 0 0
9:58 am 09:58 Cloudy 24 -4.6 19 -7.2 82 82 Calm 30.14 1021 10 16.0934 0 0
10:58 am 10:58 Cloudy 25 -4.1 20 -6.9 81 81 SSE 3 6 30.13 1020 10 16.0934 0 0
11:58 am 11:58 Mostly Cloudy 25 -3.7 19 -7.5 75 75 SSE 7 11 30.13 1020 10 16.0934 0 0
12:58 pm 12:58 Mostly Cloudy with Scattered Snow Showers 24 -4.2 21 -6 87 87 SSE 7 11 30.13 1020 4 6.43736 0 0
1:58 pm 13:58 Partly Cloudy with Scattered Snow Showers 25 -3.7 23 -5.1 90 90 Calm 30.14 1021 10 16.0934 0 0
2:58 pm 14:58 Cloudy 27 -2.8 24 -4.2 90 90 SE 5 7 30.14 1021 10 16.0934 0 0
3:58 pm 15:58 Cloudy 31 -0.7 26 -3.1 84 84 S 12 19 30.16 1021 10 16.0934 0 0
4:58 pm 16:58 Cloudy 32 0 27 -2.7 82 82 S 16 26 30.17 1022 10 16.0934 0 0
5:58 pm 17:58 Partly Cloudy 33 0.5 27 -2.8 79 79 SSW 15 24 30.16 1021 10 16.0934 0 0
6:58 pm 18:58 Sunny 35 1.7 26 -3.3 70 70 SSW 13 20 30.15 1021 10 16.0934 0 0
7:58 pm 19:58 Mostly Sunny 37 3 28 -2.3 68 68 SSW 14 22 30.14 1021 10 16.0934 0 0
8:58 pm 20:58 Mostly Sunny 38 3.5 29 -1.7 69 69 SW 14 22 30.1 1019 10 16.0934 0 0
9:58 pm 21:58 Sunny 38 3.5 28 -2.1 67 67 SSW 13 20 30.08 1019 10 16.0934 0 0
10:58 pm 22:58 Partly Cloudy 38 3.2 28 -2.1 69 69 SSW 12 19 30.08 1019 10 16.0934 0 0
11:58 pm 23:58 Mostly Sunny 39 3.9 29 -1.4 69 69 SSW 18 30 30.07 1018 10 16.0934 0 0

Powered by AerisWeather